Terminal Aerodrome Forecast
Issued by NWS

Home | Current Version | Previous Version | Text Only | Print | Product List | Glossary On
Versions: 1 2 3 4 5 6 7 8 9 10 11 12 13 14 15 16
000
FTUS41 KILN 282300
TAFLUK
TAF
KLUK 282327Z 2900/2924 VRB02KT P6SM SKC
     FM291300 18008KT P6SM BKN200
     FM291800 19012G20KT P6SM BKN150
     FM292200 20009KT P6SM -SHRA SCT050 OVC080=

USA.gov is the U.S. government's official web portal to all federal, state and local government web resources and services.